SQ5DCP-1 Weather Reports


Display with metric or nautical units.
time (UTC)temp
F
wind
direction
speed
MPH
gust
MPH
rain 1hr
in
rain 24hr
in
rain mn
in
humidity
%
barometer
mb
20180821100531 71 271 6.0 13.0 0.00 0.00 0.00 66 1019.0
20180821100030 70 286 5.0 12.0 0.00 0.00 0.00 67 1019.0
20180821095529 70 266 5.0 9.0 0.00 0.00 0.00 68 1019.1
20180821095027 70 278 6.0 10.0 0.00 0.00 0.00 69 1019.1
20180821094526 70 271 6.0 10.0 0.00 0.00 0.00 69 1019.1
20180821094025 70 265 7.0 12.0 0.00 0.00 0.00 69 1019.1
20180821093523 70 277 6.0 9.0 0.00 0.00 0.00 70 1019.1
20180821093052 70 263 6.0 12.0 0.00 0.00 0.00 70 1019.1
20180821092551 69 257 5.0 12.0 0.00 0.00 0.00 70 1019.1
20180821092019 69 274 6.0 10.0 0.00 0.00 0.00 70 1019.0
20180821091549 70 272 6.0 14.0 0.00 0.00 0.00 69 1019.0
20180821091018 70 273 7.0 13.0 0.00 0.00 0.00 69 1019.0
20180821090547 69 286 6.0 10.0 0.00 0.00 0.00 70 1019.0
20180821090046 69 284 5.0 10.0 0.00 0.00 0.00 70 1019.0
20180821085543 69 276 5.0 10.0 0.00 0.00 0.00 70 1019.0
20180821085042 69 271 7.0 13.0 0.00 0.00 0.00 71 1019.0
20180821084538 69 285 5.0 10.0 0.00 0.00 0.00 71 1018.9
20180821084035 69 266 4.0 10.0 0.00 0.00 0.00 73 1018.9
20180821083534 69 270 3.0 5.0 0.00 0.00 0.00 73 1018.9
20180821083032 69 274 5.0 9.0 0.00 0.00 0.00 72 1018.9
20180821082531 69 276 5.0 9.0 0.00 0.00 0.00 73 1018.9
20180821082030 69 273 6.0 10.0 0.00 0.00 0.00 73 1018.9
20180821081556 69 256 4.0 9.0 0.00 0.00 0.00 73 1018.9
20180821081025 69 284 5.0 8.0 0.00 0.00 0.00 73 1018.9
20180821080524 69 272 6.0 9.0 0.00 0.00 0.00 74 1018.9
20180821080021 69 266 3.0 8.0 0.00 0.00 0.00 74 1018.8
20180821075520 68 283 4.0 8.0 0.00 0.00 0.00 74 1018.9
20180821075049 69 280 4.0 9.0 0.00 0.00 0.00 74 1018.8
20180821074547 69 278 5.0 8.0 0.00 0.00 0.00 73 1018.8
20180821074047 69 279 4.0 9.0 0.00 0.00 0.00 73 1018.8
20180821073546 69 288 4.0 6.0 0.00 0.00 0.00 74 1018.7
20180821073045 68 280 4.0 9.0 0.00 0.00 0.00 74 1018.7
20180821072543 68 296 5.0 9.0 0.00 0.00 0.00 74 1018.6
20180821072042 68 293 2.0 6.0 0.00 0.00 0.00 74 1018.6
20180821071538 68 276 5.0 10.0 0.00 0.00 0.00 74 1018.6
20180821071033 68 276 5.0 12.0 0.00 0.00 0.00 74 1018.5
20180821070533 68 281 4.0 9.0 0.00 0.00 0.00 75 1018.4
20180821070030 68 272 5.0 8.0 0.00 0.00 0.00 75 1018.3
20180821065526 67 266 4.0 8.0 0.00 0.00 0.00 76 1018.3
20180821065026 67 264 4.0 9.0 0.00 0.00 0.00 76 1018.2
20180821064523 67 273 5.0 9.0 0.00 0.00 0.00 76 1018.3
20180821064023 67 282 4.0 8.0 0.00 0.00 0.00 77 1018.3
20180821063522 66 281 4.0 8.0 0.00 0.00 0.00 76 1018.2
20180821063051 66 284 4.0 9.0 0.00 0.00 0.00 77 1018.2
20180821062550 66 282 5.0 9.0 0.00 0.00 0.00 77 1018.1
20180821062047 66 276 5.0 8.0 0.00 0.00 0.00 77 1018.0
20180821061543 66 277 3.0 8.0 0.00 0.00 0.00 77 1017.9
20180821061038 66 266 3.0 8.0 0.00 0.00 0.00 77 1017.9
20180821060537 65 285 3.0 9.0 0.00 0.00 0.00 78 1017.8
20180821060036 65 276 3.0 6.0 0.00 0.00 0.00 78 1017.9
20180821055534 65 281 3.0 8.0 0.00 0.00 0.00 78 1017.9
20180821055033 65 292 2.0 5.0 0.00 0.00 0.00 79 1017.9
20180821054531 65 266 4.0 6.0 0.00 0.00 0.00 79 1017.7
20180821054030 64 276 3.0 6.0 0.00 0.00 0.00 79 1017.7
20180821053529 64 274 3.0 5.0 0.00 0.00 0.00 80 1017.7
20180821053028 64 262 2.0 5.0 0.00 0.00 0.00 80 1017.7
20180821052527 64 291 3.0 8.0 0.00 0.00 0.00 80 1017.7
20180821052056 64 275 2.0 5.0 0.00 0.00 0.00 79 1017.6
20180821051522 63 260 2.0 5.0 0.00 0.00 0.00 79 1017.6
20180821051049 63 250 1.0 4.0 0.00 0.00 0.00 80 1017.6
20180821050545 63 270 2.0 4.0 0.00 0.00 0.00 80 1017.6
20180821050042 63 264 2.0 5.0 0.00 0.00 0.00 80 1017.5
20180821045541 63 270 2.0 5.0 0.00 0.00 0.00 80 1017.4
20180821045038 62 253 2.0 6.0 0.00 0.00 0.00 80 1017.3
20180821044537 62 257 2.0 4.0 0.00 0.00 0.00 80 1017.2
20180821044036 62 251 2.0 4.0 0.00 0.00 0.00 80 1017.3
20180821043532 62 277 2.0 5.0 0.00 0.00 0.00 80 1017.3
20180821043031 62 276 2.0 6.0 0.00 0.00 0.00 80 1017.2
20180821042529 62 265 3.0 6.0 0.00 0.00 0.00 80 1017.2
20180821042028 62 267 2.0 5.0 0.00 0.00 0.00 79 1017.2
20180821041527 62 276 2.0 5.0 0.00 0.00 0.00 79 1017.2
20180821041055 62 277 2.0 4.0 0.00 0.00 0.00 79 1017.2
20180821040552 62 278 2.0 4.0 0.00 0.00 0.00 79 1017.1
20180821040051 62 257 1.0 4.0 0.00 0.00 0.00 79 1017.1
20180821035520 62 247 1.0 4.0 0.00 0.00 0.00 79 1017.0
20180821035019 62 261 2.0 5.0 0.00 0.00 0.00 79 1016.9
20180821034518 62 265 2.0 5.0 0.00 0.00 0.00 79 1016.9
20180821034018 62 259 2.0 5.0 0.00 0.00 0.00 79 1016.9
20180821033547 62 266 2.0 4.0 0.00 0.00 0.00 79 1016.9
20180821033043 62 278 2.0 5.0 0.00 0.00 0.00 79 1016.8
20180821032541 62 253 2.0 4.0 0.00 0.00 0.00 78 1016.8
20180821032040 62 256 2.0 5.0 0.00 0.00 0.00 78 1016.8
20180821031538 62 260 2.0 5.0 0.00 0.00 0.00 78 1016.8
20180821031037 62 263 2.0 4.0 0.00 0.00 0.00 78 1016.7
20180821030537 62 272 2.0 4.0 0.00 0.00 0.00 78 1016.6
20180821030035 62 262 2.0 4.0 0.00 0.00 0.00 77 1016.5
20180821025534 62 266 2.0 4.0 0.00 0.00 0.00 77 1016.4
20180821025030 62 247 2.0 5.0 0.00 0.00 0.00 77 1016.4
20180821024530 62 249 2.0 4.0 0.00 0.00 0.00 77 1016.4
20180821024029 63 261 3.0 5.0 0.00 0.00 0.00 77 1016.4
20180821023525 63 261 2.0 4.0 0.00 0.00 0.00 77 1016.4
20180821023025 63 252 2.0 5.0 0.00 0.00 0.00 76 1016.4
20180821022521 63 268 2.0 4.0 0.00 0.00 0.00 76 1016.4
20180821022021 63 249 2.0 4.0 0.00 0.00 0.00 76 1016.4
20180821021550 63 271 2.0 4.0 0.00 0.00 0.00 77 1016.4
20180821021048 63 259 1.0 4.0 0.00 0.00 0.00 77 1016.4
20180821020545 63 270 2.0 4.0 0.00 0.00 0.00 77 1016.4
20180821020044 63 264 2.0 5.0 0.00 0.00 0.00 77 1016.4
20180821015542 63 268 2.0 5.0 0.00 0.00 0.00 77 1016.4
20180821015041 63 255 2.0 4.0 0.00 0.00 0.00 76 1016.4
20180821014540 64 273 2.0 5.0 0.00 0.00 0.00 76 1016.4
20180821014036 64 265 2.0 5.0 0.00 0.00 0.00 76 1016.4
20180821013535 64 267 2.0 5.0 0.00 0.00 0.00 76 1016.4
20180821013032 64 267 3.0 5.0 0.00 0.00 0.00 76 1016.4
20180821012531 64 267 2.0 5.0 0.00 0.00 0.00 76 1016.4
20180821012029 64 254 3.0 5.0 0.00 0.00 0.00 75 1016.4
20180821011527 64 258 2.0 5.0 0.00 0.00 0.00 75 1016.3
20180821011055 64 253 2.0 4.0 0.00 0.00 0.00 75 1016.3
20180821010550 64 265 2.0 5.0 0.00 0.00 0.00 75 1016.3
20180821010049 64 263 2.0 5.0 0.00 0.00 0.00 75 1016.2
20180821005546 65 267 3.0 5.0 0.00 0.00 0.00 75 1016.2
20180821005045 65 263 3.0 5.0 0.00 0.00 0.00 75 1016.2
20180821004544 65 257 3.0 6.0 0.00 0.00 0.00 75 1016.1
20180821004043 65 253 3.0 6.0 0.00 0.00 0.00 75 1016.1
20180821003540 65 259 3.0 5.0 0.00 0.00 0.00 75 1016.1
20180821003040 65 264 3.0 5.0 0.00 0.00 0.00 74 1016.1
20180821002536 65 253 3.0 5.0 0.00 0.00 0.00 74 1016.1
20180821002032 65 260 3.0 6.0 0.00 0.00 0.00 74 1016.1
20180821001531 65 261 2.0 5.0 0.00 0.00 0.00 74 1016.1
20180821001027 65 248 3.0 5.0 0.00 0.00 0.00 74 1016.0
20180821000526 65 265 3.0 5.0 0.00 0.00 0.00 74 1015.9
20180821000025 65 256 3.0 5.0 0.00 0.00 0.00 74 1015.8
20180820235553 66 262 3.0 5.0 0.00 0.00 0.00 74 1015.8
20180820235050 66 260 2.0 5.0 0.00 0.00 0.00 74 1015.8
20180820234550 66 263 3.0 5.0 0.00 0.00 0.00 74 1015.8
20180820234017 66 254 2.0 5.0 0.00 0.00 0.00 74 1015.8
20180820233546 66 265 3.0 5.0 0.00 0.00 0.00 73 1015.8
20180820233045 66 261 3.0 5.0 0.00 0.00 0.00 73 1015.8
20180820232543 66 256 3.0 5.0 0.00 0.00 0.00 73 1015.7
20180820232042 66 259 2.0 5.0 0.00 0.00 0.00 73 1015.7
20180820231541 66 262 2.0 5.0 0.00 0.00 0.00 73 1015.7
20180820231039 66 263 2.0 4.0 0.00 0.00 0.00 73 1015.7
20180820230539 66 259 2.0 4.0 0.00 0.00 0.00 73 1015.6
20180820230037 66 253 2.0 4.0 0.00 0.00 0.00 72 1015.6
20180820225535 66 258 2.0 4.0 0.00 0.00 0.00 72 1015.6
20180820225031 67 260 2.0 4.0 0.00 0.00 0.00 72 1015.6
20180820224530 67 253 2.0 4.0 0.00 0.00 0.00 71 1015.6
20180820224027 67 255 2.0 5.0 0.00 0.00 0.00 71 1015.6
20180820223526 67 260 2.0 4.0 0.00 0.00 0.00 71 1015.6
20180820223055 67 265 2.0 4.0 0.00 0.00 0.00 71 1015.6
20180820222523 67 254 2.0 4.0 0.00 0.00 0.00 70 1015.6
20180820222023 67 262 2.0 4.0 0.00 0.00 0.00 70 1015.5
20180820221523 67 247 1.0 2.0 0.00 0.00 0.00 70 1015.6
20180820221120 68 247 1.0 2.0 0.00 0.00 0.00 69 1015.5
20180820220519 68 247 1.0 2.0 0.00 0.00 0.00 68 1015.5
20180820220048 68 247 1.0 2.0 0.00 0.00 0.00 68 1015.5
20180820215546 69 247 1.0 2.0 0.00 0.00 0.00 67 1015.4
20180820215046 69 247 1.0 4.0 0.00 0.00 0.00 67 1015.4
20180820214545 69 243 1.0 4.0 0.00 0.00 0.00 66 1015.4
20180820214041 70 247 1.0 2.0 0.00 0.00 0.00 65 1015.4
20180820213541 70 247 1.0 2.0 0.00 0.00 0.00 65 1015.3
20180820213038 70 257 1.0 2.0 0.00 0.00 0.00 65 1015.2
20180820212534 70 283 2.0 4.0 0.00 0.00 0.00 65 1015.2
20180820212033 71 296 2.0 4.0 0.00 0.00 0.00 64 1015.1
20180820211529 71 280 2.0 5.0 0.00 0.00 0.00 64 1015.1
20180820211028 71 293 3.0 6.0 0.00 0.00 0.00 65 1015.1
20180820210026 71 306 2.0 6.0 0.00 0.00 0.00 64 1015.1
20180820205525 71 318 3.0 5.0 0.00 0.00 0.00 63 1015.0
20180820205024 72 314 3.0 6.0 0.00 0.00 0.00 63 1015.0
20180820204523 72 319 3.0 8.0 0.00 0.00 0.00 63 1014.9
20180820204052 72 318 4.0 9.0 0.00 0.00 0.00 63 1014.9
20180820203552 72 315 3.0 6.0 0.00 0.00 0.00 62 1014.8
20180820203047 72 295 3.0 8.0 0.00 0.00 0.00 62 1014.8
20180820202543 72 287 3.0 5.0 0.00 0.00 0.00 63 1014.8
20180820202043 72 295 3.0 6.0 0.00 0.00 0.00 63 1014.8
20180820201540 72 276 4.0 8.0 0.00 0.00 0.00 63 1014.7
20180820201039 72 295 2.0 8.0 0.00 0.00 0.00 64 1014.6
20180820200538 73 277 2.0 5.0 0.00 0.00 0.00 65 1014.5
20180820200035 73 284 2.0 4.0 0.00 0.00 0.00 65 1014.4
20180820195534 73 281 2.0 5.0 0.00 0.00 0.00 65 1014.4
20180820195032 73 287 2.0 4.0 0.00 0.00 0.00 65 1014.4
20180820194529 73 283 2.0 4.0 0.00 0.00 0.00 65 1014.4
20180820194028 73 275 2.0 5.0 0.00 0.00 0.00 65 1014.3
20180820193526 73 288 3.0 5.0 0.00 0.00 0.00 65 1014.3
20180820193022 73 272 3.0 5.0 0.00 0.00 0.00 65 1014.2
20180820192551 73 285 3.0 5.0 0.00 0.00 0.00 66 1014.2
20180820192051 73 280 2.0 5.0 0.00 0.00 0.00 66 1014.2
20180820191550 73 284 3.0 6.0 0.00 0.00 0.00 68 1014.2
20180820191019 73 288 2.0 5.0 0.00 0.00 0.00 69 1014.1
20180820190518 74 297 1.0 6.0 0.00 0.00 0.00 70 1014.0
20180820190047 74 247 1.0 2.0 0.00 0.00 0.00 70 1013.9
20180820185546 74 0.0 0.0 0.00 0.00 0.00 69 1013.9
20180820185114 74 0.0 0.0 0.00 0.00 0.00 69 1013.9
20180820184542 75 0.0 0.0 0.00 0.00 0.00 68 1013.8
20180820184109 75 0.0 0.0 0.00 0.00 0.00 68 1013.8
20180820183537 75 0.0 1.0 0.00 0.00 0.00 67 1013.7
20180820183136 75 247 0.0 1.0 0.00 0.00 0.00 67 1013.7
20180820182606 76 0.0 0.0 0.00 0.00 0.00 66 1013.6
20180820182135 76 0.0 0.0 0.00 0.00 0.00 66 1013.5
20180820181604 76 0.0 0.0 0.00 0.00 0.00 65 1013.5
20180820181031 77 0.0 0.0 0.00 0.00 0.00 64 1013.3
20180820180630 77 0.0 0.0 0.00 0.00 0.00 63 1013.2
20180820180028 78 0.0 0.0 0.00 0.00 0.00 63 1013.2
20180820175527 78 0.0 0.0 0.00 0.00 0.00 62 1013.1
20180820175023 78 0.0 0.0 0.00 0.00 0.00 61 1013.0
20180820174748 79 0.0 0.0 0.00 0.00 0.00 60 1013.0
20180820174046 79 247 0.0 1.0 0.00 0.00 0.00 59 1012.9
20180820173543 80 247 0.0 1.0 0.00 0.00 0.00 58 1012.9
20180820173040 80 247 0.0 1.0 0.00 0.00 0.00 58 1012.8
20180820172540 81 247 0.0 1.0 0.00 0.00 0.00 57 1012.7
20180820172036 81 247 1.0 2.0 0.00 0.00 0.00 55 1012.6
20180820171535 82 247 1.0 2.0 0.00 0.00 0.00 55 1012.6
20180820171033 82 247 1.0 2.0 0.00 0.00 0.00 55 1012.6
20180820170532 83 244 1.0 2.0 0.00 0.00 0.00 54 1012.6
20180820170049 83 225 0.0 2.0 0.00 0.00 0.00 54 1012.6
20180820165523 84 222 1.0 2.0 0.00 0.00 0.00 54 1012.7
20180820165022 84 192 1.0 2.0 0.00 0.00 0.00 53 1012.7
20180820164522 84 213 1.0 2.0 0.00 0.00 0.00 53 1012.7
20180820164019 85 225 1.0 4.0 0.00 0.00 0.00 52 1012.7
20180820163549 85 232 1.0 4.0 0.00 0.00 0.00 52 1012.8
20180820163048 85 247 1.0 2.0 0.00 0.00 0.00 51 1012.8
20180820162546 86 247 1.0 2.0 0.00 0.00 0.00 50 1012.8
20180820162043 86 247 1.0 2.0 0.00 0.00 0.00 49 1012.8
20180820161542 86 237 2.0 5.0 0.00 0.00 0.00 49 1012.8
20180820161040 87 241 2.0 5.0 0.00 0.00 0.00 49 1012.8
20180820160539 87 255 2.0 5.0 0.00 0.00 0.00 49 1012.8
20180820160038 87 248 3.0 6.0 0.00 0.00 0.00 49 1012.8
20180820155535 87 235 3.0 5.0 0.00 0.00 0.00 48 1012.8
20180820155034 87 237 3.0 8.0 0.00 0.00 0.00 48 1012.8
20180820154531 88 246 4.0 9.0 0.00 0.00 0.00 47 1012.8
20180820154030 88 240 4.0 9.0 0.00 0.00 0.00 47 1012.8
20180820153529 88 250 4.0 9.0 0.00 0.00 0.00 47 1012.9
20180820153028 88 263 5.0 12.0 0.00 0.00 0.00 46 1012.8
20180820152527 89 248 4.0 9.0 0.00 0.00 0.00 47 1012.9
20180820152025 88 251 5.0 8.0 0.00 0.00 0.00 47 1012.8
20180820151523 88 239 4.0 8.0 0.00 0.00 0.00 48 1012.9
20180820151052 87 242 3.0 6.0 0.00 0.00 0.00 49 1012.9
20180820150552 87 247 3.0 8.0 0.00 0.00 0.00 48 1013.0
20180820150049 87 250 3.0 8.0 0.00 0.00 0.00 48 1013.1
20180820145548 87 262 3.0 6.0 0.00 0.00 0.00 48 1013.1
20180820145017 87 242 3.0 6.0 0.00 0.00 0.00 46 1013.2
20180820144517 88 247 6.0 12.0 0.00 0.00 0.00 46 1013.2
20180820144046 88 264 3.0 8.0 0.00 0.00 0.00 47 1013.3
20180820143543 89 244 4.0 10.0 0.00 0.00 0.00 46 1013.2
20180820143043 89 246 4.0 9.0 0.00 0.00 0.00 46 1013.1
20180820142542 89 244 4.0 8.0 0.00 0.00 0.00 47 1013.1
20180820142040 88 237 4.0 10.0 0.00 0.00 0.00 47 1013.2
20180820141539 88 248 4.0 9.0 0.00 0.00 0.00 46 1013.2
20180820141038 88 247 5.0 10.0 0.00 0.00 0.00 47 1013.2
20180820140536 88 234 4.0 9.0 0.00 0.00 0.00 47 1013.3
20180820140036 87 246 5.0 8.0 0.00 0.00 0.00 47 1013.4
20180820135535 87 255 4.0 9.0 0.00 0.00 0.00 47 1013.5
20180820135033 87 261 5.0 9.0 0.00 0.00 0.00 47 1013.5
20180820134532 87 242 5.0 10.0 0.00 0.00 0.00 46 1013.6
20180820134031 86 262 5.0 9.0 0.00 0.00 0.00 46 1013.6
20180820133528 86 248 6.0 13.0 0.00 0.00 0.00 47 1013.7
20180820133026 86 240 4.0 9.0 0.00 0.00 0.00 48 1013.8
20180820132525 86 228 4.0 9.0 0.00 0.00 0.00 47 1013.9
20180820132023 86 239 6.0 14.0 0.00 0.00 0.00 50 1013.9
20180820131522 86 236 3.0 8.0 0.00 0.00 0.00 50 1013.9
20180820131021 86 229 3.0 10.0 0.00 0.00 0.00 51 1014.0
20180820130550 85 219 4.0 9.0 0.00 0.00 0.00 51 1014.0
20180820130049 85 236 4.0 10.0 0.00 0.00 0.00 51 1014.0
20180820125548 85 231 3.0 9.0 0.00 0.00 0.00 51 1014.0
20180820125046 85 238 4.0 6.0 0.00 0.00 0.00 51 1014.0
20180820124546 85 229 4.0 8.0 0.00 0.00 0.00 52 1014.1
20180820124045 85 241 4.0 9.0 0.00 0.00 0.00 52 1014.2
20180820123542 84 241 3.0 8.0 0.00 0.00 0.00 52 1014.3
20180820123039 84 223 4.0 8.0 0.00 0.00 0.00 51 1014.3
20180820122538 84 213 3.0 8.0 0.00 0.00 0.00 49 1014.4
20180820122034 84 203 4.0 8.0 0.00 0.00 0.00 51 1014.4
20180820121534 84 230 4.0 9.0 0.00 0.00 0.00 52 1014.4
20180820121033 84 236 4.0 10.0 0.00 0.00 0.00 52 1014.4
20180820120531 84 227 4.0 9.0 0.00 0.00 0.00 52 1014.5
20180820120029 84 222 6.0 13.0 0.00 0.00 0.00 52 1014.6
20180820115528 84 206 5.0 13.0 0.00 0.00 0.00 52 1014.7
20180820115056 84 221 4.0 9.0 0.00 0.00 0.00 53 1014.6
20180820114553 84 225 3.0 9.0 0.00 0.00 0.00 52 1014.7
20180820114122 84 226 5.0 12.0 0.00 0.00 0.00 51 1014.7
20180820113521 84 218 3.0 9.0 0.00 0.00 0.00 50 1014.7
20180820113020 84 231 6.0 12.0 0.00 0.00 0.00 50 1014.8
20180820112549 84 241 6.0 12.0 0.00 0.00 0.00 51 1014.8
20180820112046 84 227 4.0 10.0 0.00 0.00 0.00 50 1014.8
20180820111543 84 203 3.0 9.0 0.00 0.00 0.00 50 1014.8
20180820111042 84 229 6.0 16.0 0.00 0.00 0.00 51 1014.7
20180820110540 84 217 4.0 8.0 0.00 0.00 0.00 52 1014.7
20180820110037 84 230 5.0 9.0 0.00 0.00 0.00 51 1014.8
20180820105536 84 247 5.0 10.0 0.00 0.00 0.00 52 1014.8
20180820105034 84 239 4.0 12.0 0.00 0.00 0.00 53 1014.9
20180820104534 84 226 3.0 8.0 0.00 0.00 0.00 52 1015.0
20180820104033 84 200 4.0 8.0 0.00 0.00 0.00 51 1015.0
20180820103532 84 192 4.0 10.0 0.00 0.00 0.00 52 1015.0
20180820103031 84 217 3.0 5.0 0.00 0.00 0.00 52 1015.0
20180820102530 84 197 3.0 8.0 0.00 0.00 0.00 54 1015.1
20180820102027 83 230 4.0 9.0 0.00 0.00 0.00 53 1015.1
20180820101524 83 210 2.0 5.0 0.00 0.00 0.00 52 1015.1
20180820101023 83 238 4.0 8.0 0.00 0.00 0.00 53 1015.1